Fergus Falls, MN

12:22 PM CDT on June 23, 2017 (GMT -0500)
Fergus Falls Municipal-Mickelson

Weather History for KFFM - March, 2014

Change the Weather History Date:

Thursday, March 6, 2014

  Actual Average Record
Temperature  
Mean Temperature 23 °F -  
Max Temperature 32 °F 31 °F 64 °F (2017)
Min Temperature 14 °F 11 °F -16 °F (1955)
Degree Days  
Heating Degree Days 42    
Moisture  
Dew Point 20 °F    
Average Humidity 82    
Maximum Humidity 86    
Minimum Humidity 44    
Precipitation  
Precipitation 0.00 in - - ()
Sea Level Pressure  
Sea Level Pressure 29.87 in    
Wind  
Wind Speed 23 mph (SSE)    
Max Wind Speed 30 mph    
Max Gust Speed 36 mph    
Visibility 3 miles    
Events Snow    
Averages and records for this station are not official NWS values.
T = Trace of Precipitation, MM = Missing Value Source: NWS Daily Summary

Daily Weather History Graph

Daily Weather History Graph

Search for Another Location

Airport or City:

Trip Planner

Search our weather history database for the weather conditions in past years. The results will help you decide how hot, cold, wet, or windy it might be!

Date:

Astronomy

Mar. 06, 2014 Rise Set
Actual Time 6:54 AM CST 6:18 PM CST
Civil Twilight 6:24 AM CST 6:48 PM CST
Nautical Twilight 5:49 AM CST 7:22 PM CST
Astronomical Twilight 5:14 AM CST 7:57 PM CST
Moon 9:43 AM CST (3/6) No Moon Set
Length of Visible Light 12h 23m
Length of Day
11h 23m
Waxing Crescent, 32% of the Moon is Illuminated
Mar 6
Waxing Crescent
Mar 8
First Quarter
Mar 16
Full
Mar 23
Last Quarter
Mar 30
New

Hourly Weather History & Observations

Time (CST) Temp. Windchill Dew Point Humidity Pressure Visibility Wind Dir Wind Speed Gust Speed Precip Events Conditions
12:13 AM 14.0 °F -5.8 °F 8.6 °F 79% 30.17 in 3.0 mi South 26.5 mph 31.1 mph N/A   Haze
12:33 AM 14.0 °F -5.8 °F 8.6 °F 79% 30.15 in 3.0 mi SSE 26.5 mph - N/A   Haze
12:53 AM 14.0 °F -4.7 °F 8.6 °F 79% 30.15 in 5.0 mi SSE 23.0 mph - N/A   Haze
1:13 AM 14.0 °F -5.1 °F 8.6 °F 79% 30.14 in 4.0 mi SSE 24.2 mph 29.9 mph N/A   Haze
1:33 AM 14.0 °F -5.5 °F 8.6 °F 79% 30.13 in 3.0 mi SSE 25.3 mph - N/A   Haze
1:53 AM 14.0 °F -5.5 °F 10.4 °F 86% 30.12 in 2.0 mi SSE 25.3 mph - N/A   Mostly Cloudy
2:13 AM 15.8 °F -3.1 °F 10.4 °F 79% 30.11 in 2.5 mi SSE 25.3 mph 31.1 mph N/A   Haze
2:33 AM 15.8 °F -1.9 °F 10.4 °F 79% 30.09 in 3.0 mi SSE 21.9 mph 29.9 mph N/A   Haze
2:53 AM 15.8 °F -2.7 °F 12.2 °F 86% 30.07 in 3.0 mi SSE 24.2 mph 28.8 mph N/A   Clear
3:13 AM 17.6 °F -0.6 °F 12.2 °F 79% 30.06 in 3.0 mi SSE 25.3 mph 29.9 mph N/A   Clear
3:33 AM 17.6 °F -0.6 °F 12.2 °F 79% 30.05 in 3.0 mi SSE 25.3 mph 32.2 mph N/A   Clear
3:53 AM 17.6 °F -0.6 °F 14.0 °F 86% 30.03 in 2.5 mi SSE 25.3 mph 31.1 mph N/A   Clear
4:13 AM 17.6 °F -0.6 °F 14.0 °F 86% 30.01 in 1.8 mi SSE 25.3 mph 31.1 mph N/A   Mist
4:33 AM 17.6 °F -0.6 °F 12.2 °F 79% 30.01 in 2.5 mi SSE 25.3 mph - N/A   Haze
4:52 AM 32.0 °F 19.2 °F 12.2 °F 44% - 3.0 mi SSE 23.0 mph - N/A   Haze
5:13 AM 17.6 °F 0.5 °F 14.0 °F 86% 30.01 in 4.0 mi SSE 21.9 mph - N/A   Haze
5:33 AM 17.6 °F 0.9 °F 14.0 °F 86% 30.01 in 4.0 mi South 20.7 mph 26.5 mph N/A   Mostly Cloudy
5:53 AM 17.6 °F -0.6 °F 14.0 °F 86% 30.00 in 4.0 mi SSE 25.3 mph - N/A   Mostly Cloudy
6:12 AM 17.6 °F -1.0 °F 14.0 °F 86% 29.98 in 2.0 mi SSE 26.5 mph 29.9 mph N/A   Overcast
6:33 AM 17.6 °F 0.1 °F 14.0 °F 86% 29.96 in 2.0 mi SSE 23.0 mph - N/A   Mostly Cloudy
6:53 AM 17.6 °F -1.0 °F 14.0 °F 86% 29.94 in 1.8 mi SSE 26.5 mph 31.1 mph N/A   Mostly Cloudy
7:13 AM 17.6 °F -1.6 °F 14.0 °F 86% 29.93 in 0.8 mi SSE 28.8 mph 34.5 mph N/A Snow Light Snow
7:33 AM 17.6 °F -1.9 °F 14.0 °F 86% 29.92 in 1.0 mi SSE 29.9 mph 35.7 mph N/A   Unknown
7:53 AM 19.4 °F 2.1 °F 14.0 °F 80% 29.92 in 1.2 mi SSE 24.2 mph 31.1 mph N/A   Unknown
8:13 AM 19.4 °F 1.1 °F 15.8 °F 86% 29.91 in 1.0 mi SSE 27.6 mph 35.7 mph N/A   Haze
8:33 AM 19.4 °F 1.4 °F 15.8 °F 86% 29.91 in 1.5 mi SSE 26.5 mph 33.4 mph N/A   Haze
8:53 AM 19.4 °F 0.8 °F 15.8 °F 86% 29.90 in 1.2 mi SSE 28.8 mph 33.4 mph N/A   Mist
9:13 AM 21.2 °F 4.2 °F 15.8 °F 80% 29.90 in 1.5 mi SSE 25.3 mph 34.5 mph N/A   Haze
9:33 AM 21.2 °F 3.3 °F 15.8 °F 80% 29.89 in 1.5 mi SSE 28.8 mph 33.4 mph N/A   Haze
9:53 AM 21.2 °F 3.5 °F 17.6 °F 86% 29.88 in 1.5 mi SSE 27.6 mph 32.2 mph N/A   Haze
10:13 AM 23.0 °F 7.2 °F 17.6 °F 80% 29.88 in 2.5 mi SSE 23.0 mph 33.4 mph N/A   Haze
10:33 AM 24.8 °F 9.3 °F 17.6 °F 74% 29.87 in 2.5 mi South 24.2 mph 29.9 mph N/A   Haze
10:53 AM 24.8 °F 8.7 °F 19.4 °F 80% 29.87 in 2.5 mi South 26.5 mph - N/A   Haze
11:13 AM 26.6 °F 11.4 °F 19.4 °F 74% 29.87 in 3.0 mi South 25.3 mph 29.9 mph N/A   Haze
11:33 AM 26.6 °F 11.1 °F 21.2 °F 80% 29.85 in 3.0 mi SSE 26.5 mph 32.2 mph N/A   Haze
11:53 AM 26.6 °F 11.1 °F 21.2 °F 80% 29.85 in 3.0 mi South 26.5 mph 33.4 mph N/A   Haze
12:13 PM 28.4 °F 14.1 °F 21.2 °F 74% 29.86 in 4.0 mi South 24.2 mph 29.9 mph N/A   Haze
12:33 PM 28.4 °F 13.8 °F 21.2 °F 74% 29.84 in 4.0 mi South 25.3 mph 31.1 mph N/A   Haze
12:53 PM 28.4 °F 14.7 °F 23.0 °F 80% 29.83 in 4.0 mi South 21.9 mph - N/A   Haze
1:13 PM 28.4 °F 14.1 °F 23.0 °F 80% 29.81 in 4.0 mi South 24.2 mph 31.1 mph N/A   Haze
1:33 PM 30.2 °F 16.5 °F 23.0 °F 75% 29.80 in 4.0 mi South 24.2 mph - N/A   Haze
1:53 PM 30.2 °F 16.2 °F 23.0 °F 75% 29.80 in 4.0 mi South 25.3 mph - N/A   Haze
2:13 PM 30.2 °F 16.8 °F 24.8 °F 80% 29.79 in 4.0 mi South 23.0 mph - N/A   Haze
2:33 PM 30.2 °F 17.8 °F 24.8 °F 80% 29.78 in 4.0 mi South 19.6 mph 27.6 mph N/A   Haze
2:53 PM 30.2 °F 16.5 °F 24.8 °F 80% 29.77 in 4.0 mi South 24.2 mph - N/A   Haze
3:13 PM 30.2 °F 17.8 °F 24.8 °F 80% 29.78 in 4.0 mi South 19.6 mph - N/A   Haze
3:32 PM 30.2 °F 17.1 °F 24.8 °F 80% 29.78 in 4.0 mi South 21.9 mph - N/A   Haze
3:53 PM 30.2 °F 17.4 °F 24.8 °F 80% 29.78 in 4.0 mi South 20.7 mph 24.2 mph N/A   Haze
4:13 PM 30.2 °F 17.1 °F 24.8 °F 80% 29.77 in 4.0 mi South 21.9 mph - N/A   Haze
4:32 PM 30.2 °F 17.1 °F 24.8 °F 80% 29.76 in 4.0 mi South 21.9 mph 28.8 mph N/A   Haze
4:53 PM 30.2 °F 18.1 °F 24.8 °F 80% 29.77 in 4.0 mi South 18.4 mph - N/A   Haze
5:13 PM 30.2 °F 17.1 °F 24.8 °F 80% 29.75 in 4.0 mi South 21.9 mph - N/A   Haze
5:33 PM 30.2 °F 17.8 °F 24.8 °F 80% 29.76 in 3.0 mi South 19.6 mph 23.0 mph N/A   Haze
5:53 PM 30.2 °F 18.5 °F 24.8 °F 80% 29.76 in 3.0 mi South 17.3 mph 25.3 mph N/A   Haze
6:13 PM 30.2 °F 18.1 °F 26.6 °F 86% 29.75 in 3.0 mi South 18.4 mph - N/A   Haze
6:33 PM 30.2 °F 17.8 °F 24.8 °F 80% 29.73 in 4.0 mi SSE 19.6 mph 25.3 mph N/A   Haze
6:53 PM 30.2 °F 18.1 °F 26.6 °F 86% 29.73 in 4.0 mi SSE 18.4 mph - N/A   Scattered Clouds
7:13 PM 30.2 °F 19.8 °F 26.6 °F 86% 29.77 in 4.0 mi South 13.8 mph - N/A   Scattered Clouds
7:33 PM 30.2 °F 17.8 °F 26.6 °F 86% 29.73 in 4.0 mi SSE 19.6 mph - N/A   Clear
7:53 PM 30.2 °F 18.5 °F 26.6 °F 86% 29.75 in 4.0 mi SSE 17.3 mph - N/A   Haze
8:13 PM 30.2 °F 18.5 °F 26.6 °F 86% 29.73 in 4.0 mi SSE 17.3 mph - N/A   Haze
8:33 PM 30.2 °F 19.3 °F 26.6 °F 86% 29.73 in 4.0 mi SSE 15.0 mph - N/A   Haze
8:53 PM 30.2 °F 18.5 °F 26.6 °F 86% 29.73 in 4.0 mi SSE 17.3 mph - N/A   Haze
9:13 PM 30.2 °F 18.9 °F 26.6 °F 86% 29.72 in 4.0 mi South 16.1 mph - N/A   Haze
9:33 PM 30.2 °F 18.9 °F 26.6 °F 86% 29.72 in 3.0 mi SSE 16.1 mph 19.6 mph N/A   Mostly Cloudy
9:53 PM 30.2 °F 20.2 °F 26.6 °F 86% 29.72 in 3.0 mi SSE 12.7 mph - N/A   Scattered Clouds
10:13 PM 30.2 °F 19.8 °F 26.6 °F 86% 29.73 in 3.0 mi South 13.8 mph - N/A   Scattered Clouds
10:33 PM 30.2 °F 19.3 °F 26.6 °F 86% 29.73 in 4.0 mi South 15.0 mph - N/A   Clear
10:53 PM 30.2 °F 21.3 °F 26.6 °F 86% 29.74 in 4.0 mi South 10.4 mph - N/A   Clear
11:13 PM 30.2 °F 21.3 °F 26.6 °F 86% 29.74 in 4.0 mi South 10.4 mph - N/A   Clear
11:33 PM 30.2 °F 21.3 °F 26.6 °F 86% 29.74 in 4.0 mi South 10.4 mph - N/A   Clear
11:53 PM 30.2 °F 21.9 °F 26.6 °F 86% 29.73 in 3.0 mi SSE 9.2 mph - N/A   Clear